Theta_e
342 344 342 339 340 340 338 339 336 337 338 341 344 347 347 346 346 346 343 346 344 343 338 335 333 332 332 333 332 332 332 332 332 332 332 333 333 333 332 332 331 331 332
342 340 341 336 337 338 336 338 337 342 340 346 347 345 343 343 345 343 339 338 342 341 339 333 331 332 331 331 332 332 332 332 332 333 332 332 331 330 330 331 332 332 332
343 342 340 336 336 338 340 342 343 343 346 343 340 341 343 344 344 340 337 334 336 339 336 335 337 333 329 331 331 332 332 331 331 332 331 329 328 328 329 330 330 332 332
345 342 339 337 337 338 339 338 342 342 341 337 336 338 337 341 341 341 337 334 329 328 334 339 335 331 327 330 331 333 332 330 330 330 329 329 328 328 329 329 329 328 328
346 341 339 339 335 340 347 345 342 342 336 335 336 333 336 336 338 341 337 328 327 322 320 337 336 331 327 328 330 333 332 330 329 328 328 327 328 327 326 327 326 327 327
347 342 339 341 345 346 344 342 335 335 333 331 334 333 333 334 339 336 333 325 320 319 320 321 320 323 336 332 332 331 331 331 329 328 327 325 325 326 326 326 326 325 326
345 338 348 345 346 344 341 341 336 331 328 328 325 324 327 328 327 332 327 320 318 319 319 322 322 323 323 333 331 330 330 330 329 328 326 324 325 325 326 326 326 326 326
342 348 344 341 341 336 332 331 331 328 329 324 322 323 320 324 318 322 315 318 316 319 321 322 320 322 322 323 326 329 328 328 327 327 325 324 325 325 325 324 325 325 325
349 346 343 340 335 332 330 330 330 329 326 327 322 323 316 314 312 315 315 314 314 318 319 321 321 323 319 320 323 323 325 326 327 327 325 324 324 324 323 322 322 322 322
344 341 338 335 334 332 331 332 330 326 326 322 320 320 317 313 307 305 313 314 316 317 317 319 318 320 319 319 323 326 327 327 326 325 324 323 323 323 322 322 321 321 321
340 339 337 334 331 330 327 325 324 323 319 316 314 312 311 312 311 310 303 308 312 314 315 318 320 319 320 318 317 322 326 327 327 323 322 321 321 322 321 321 320 320 320
336 336 335 334 328 326 324 322 322 321 318 316 316 312 309 308 306 308 307 307 307 310 315 321 321 319 320 317 324 326 326 326 324 323 323 321 320 320 320 320 320 319 319
332 334 332 328 326 324 323 322 320 318 317 315 314 312 313 313 313 310 308 306 305 308 310 312 315 319 321 317 318 326 327 325 321 321 321 321 319 319 319 319 318 317 317
332 331 328 325 322 322 322 321 318 317 317 315 315 315 314 313 313 311 309 306 304 305 307 308 312 314 317 316 321 327 318 322 321 320 319 318 318 319 318 318 316 316 315
328 325 323 321 321 322 320 319 316 315 314 315 314 314 313 314 314 314 314 310 306 301 302 307 308 313 315 315 320 314 313 321 319 318 316 316 317 317 318 318 317 316 316
326 323 321 320 320 319 317 316 315 315 314 314 313 311 312 313 313 313 312 310 310 306 301 306 309 311 312 315 314 311 312 314 315 315 317 316 315 314 316 316 316 316 316
322 321 320 319 318 317 316 315 315 316 314 313 315 312 313 312 310 311 310 310 308 307 303 305 307 308 307 305 305 307 306 306 307 313 315 314 313 313 313 313 313 315 312
321 321 319 318 318 318 316 315 315 316 314 314 315 311 311 311 306 305 307 303 303 304 302 301 302 304 303 301 301 301 303 306 304 309 312 312 309 311 310 311 310 310 308
318 318 317 316 316 315 315 315 315 316 317 315 312 309 307 304 301 301 301 300 300 304 301 300 299 301 299 299 298 300 300 300 304 309 309 308 308 310 311 310 309 307 305
316 314 311 310 309 310 312 316 316 317 316 311 308 306 303 300 297 296 296 295 297 298 299 298 297 297 295 296 296 295 297 298 299 302 304 306 307 308 308 307 308 307 305
313 309 307 305 304 305 306 311 315 315 313 310 304 302 299 298 299 298 295 293 294 296 297 296 293 293 292 294 294 295 294 296 297 297 298 298 300 299 301 303 304 305 304
310 307 304 302 299 301 301 307 312 309 309 306 302 299 296 294 294 297 300 304 301 295 292 292 291 290 290 293 293 293 293 295 294 297 299 299 301 300 301 301 303 302 302
305 301 299 297 295 296 298 303 308 307 304 302 299 296 293 292 292 291 296 299 298 301 300 292 289 291 291 295 294 293 293 295 296 299 299 294 298 297 299 301 303 301 301
304 301 298 295 294 296 297 299 305 304 299 296 293 292 289 288 290 290 292 293 293 293 293 295 292 293 294 295 292 296 296 294 295 299 300 294 297 295 297 298 302 301 301
303 300 297 295 293 293 297 298 305 304 292 290 291 290 290 287 292 293 289 289 290 290 296 299 298 298 297 298 299 297 294 292 291 294 298 294 295 294 295 297 299 301 299
300 299 297 296 296 292 295 297 297 300 292 293 291 291 295 290 292 292 286 285 286 287 289 293 294 296 297 300 300 295 294 291 291 293 297 293 293 293 291 297 297 298 297
Wind_Speed
6 6 6 6 6 5 5 5 5 6 7 6 2 5 7 8 7 4 4 10 14 13 12 12 11 11 10 13 14 16 15 15 15 15 16 17 18 18 19 18 18 17 17
6 6 5 6 5 5 6 6 5 5 3 5 5 6 6 6 7 6 4 5 12 10 10 9 8 9 9 11 13 13 14 16 17 17 17 18 19 19 18 19 18 17 17
5 5 5 5 5 5 6 5 3 4 5 5 5 5 5 5 3 6 5 3 5 8 8 4 8 12 7 9 11 12 12 15 16 17 17 18 18 19 19 20 21 20 18
7 4 4 2 3 2 2 4 4 4 5 4 3 4 4 3 3 3 4 5 4 4 4 3 14 9 4 7 8 10 13 16 16 17 18 18 19 19 18 18 19 20 20
6 5 3 3 2 3 5 5 6 6 6 4 4 3 3 3 4 2 5 6 6 4 0 8 10 6 3 1 6 9 13 16 17 17 16 17 17 16 16 17 17 18 19
6 5 1 1 4 6 5 6 9 8 5 3 3 4 3 3 2 4 5 5 5 4 2 6 3 3 5 8 8 9 13 15 17 16 15 15 15 16 19 18 19 21 20
7 5 5 4 6 8 6 5 5 7 6 3 2 4 5 6 5 5 5 3 4 2 2 5 2 2 2 9 9 9 11 15 15 13 14 14 15 18 19 20 19 19 20
7 7 8 6 8 8 9 8 5 3 3 5 3 2 4 4 5 4 4 3 4 1 4 4 3 4 3 3 5 6 9 12 14 12 12 14 16 18 19 19 19 19 19
10 12 10 9 9 7 6 5 5 6 3 3 3 3 2 3 2 2 5 5 6 3 1 3 3 3 1 3 4 3 3 9 11 10 11 13 14 16 16 17 18 19 18
13 12 11 10 8 5 6 5 4 4 3 3 2 3 4 3 1 5 4 6 6 6 4 3 2 3 1 2 2 4 5 8 10 8 8 9 11 12 13 14 16 17 18
13 12 10 9 7 5 5 6 4 4 4 4 3 2 3 3 3 3 2 5 5 4 4 3 2 3 4 2 1 3 6 8 9 6 8 7 9 10 11 12 15 15 16
9 10 9 8 6 6 6 5 7 8 6 6 4 4 3 2 1 3 2 3 3 5 4 4 5 3 3 2 3 3 7 6 6 10 9 7 7 9 10 10 12 13 14
8 8 10 8 6 7 6 6 8 8 6 5 5 3 2 3 3 2 3 2 1 3 4 3 6 4 4 5 6 8 8 7 10 9 10 5 7 9 9 9 9 9 10
9 9 10 8 7 7 6 7 5 5 6 5 7 6 3 3 3 1 2 2 3 3 3 3 3 6 5 6 12 13 6 12 16 11 6 5 10 10 12 10 8 6 7
10 11 10 8 6 7 7 8 5 5 5 5 6 6 4 4 5 4 3 2 3 2 3 4 4 7 7 8 10 9 9 17 16 6 8 8 13 14 12 12 11 7 10
14 11 9 9 8 7 7 7 5 6 7 4 4 7 5 4 5 5 4 3 3 0 2 2 4 5 9 7 13 10 11 14 15 18 16 9 10 12 10 10 12 10 8
13 12 10 10 8 7 7 6 6 7 8 6 7 7 7 7 5 6 5 5 5 4 3 4 2 6 7 8 11 9 11 10 10 17 15 17 18 16 16 14 13 11 11
12 12 11 9 7 6 6 5 6 7 8 7 8 8 8 6 7 6 5 6 5 4 2 6 4 6 5 7 10 7 9 9 9 18 20 18 22 19 18 13 15 12 9
13 13 11 8 8 7 6 7 7 7 10 10 10 9 8 8 7 6 5 5 5 5 3 2 4 3 3 5 6 7 7 7 8 19 18 19 19 19 12 11 8 9 9
13 12 12 12 10 9 9 7 8 12 12 11 11 11 9 7 6 6 6 6 5 6 4 4 4 4 3 4 3 4 9 4 8 8 10 12 13 14 13 16 12 14 11
15 14 13 12 11 10 6 7 10 13 11 10 10 9 9 13 15 11 4 6 6 4 4 3 3 3 4 7 7 4 3 5 5 5 6 5 6 3 7 11 14 15 15
15 14 14 13 11 7 9 13 13 12 10 7 6 6 7 13 12 15 17 15 12 5 6 4 3 3 6 8 4 3 3 7 8 3 6 8 5 9 8 8 14 14 14
15 14 12 11 10 6 12 13 13 8 7 9 10 7 7 7 8 7 11 13 13 13 10 2 4 6 6 10 6 5 5 6 6 8 8 4 6 7 9 9 10 19 19
14 13 11 10 10 8 11 11 13 9 10 11 8 6 5 6 8 9 8 9 10 7 7 7 5 8 5 7 2 3 6 7 5 7 6 6 8 9 9 6 10 19 14
13 14 11 11 12 10 12 11 8 9 9 9 5 5 6 5 7 11 8 8 9 10 13 17 16 12 7 9 7 8 9 9 9 9 8 8 8 11 5 5 8 15 15
13 12 13 12 15 12 17 14 9 8 8 5 2 3 6 5 7 6 5 6 7 7 9 10 10 10 6 6 10 6 7 8 7 5 8 8 9 7 6 2 9 7 10
Wind_Direction
179 172 177 175 198 188 202 205 200 216 227 231 34 118 84 89 136 131 119 137 103 101 97 74 64 57 48 37 31 26 21 15 11 8 10 7 5 360 353 350 348 343 339
187 166 179 194 202 209 198 220 193 213 131 110 101 89 82 72 104 134 148 129 114 120 94 82 68 71 56 44 41 31 29 19 11 14 11 8 2 359 352 349 348 344 339
181 165 169 184 187 185 188 166 125 92 92 68 65 67 73 56 39 110 130 122 130 125 110 177 46 96 71 48 42 36 30 22 13 13 11 11 3 358 357 353 348 349 345
170 184 169 204 223 300 169 77 102 91 86 80 75 35 48 2 349 116 110 148 157 92 203 156 92 92 91 44 44 38 29 23 25 20 15 9 2 0 356 359 356 355 348
172 178 163 233 188 62 69 79 56 73 65 48 21 351 355 336 307 130 121 109 107 105 76 106 97 126 100 49 70 49 34 28 22 16 10 359 356 356 357 7 3 0 358
173 162 119 180 110 89 74 85 87 61 63 32 354 324 325 330 316 91 71 106 90 100 121 87 92 34 39 83 82 46 31 22 21 9 1 354 356 360 7 6 5 0 358
168 122 91 74 83 80 71 79 110 97 45 340 35 352 11 42 35 79 47 65 28 123 95 67 111 68 13 88 89 47 28 18 6 2 5 358 358 2 6 1 359 357 355
140 106 94 77 76 80 63 57 69 85 84 21 84 68 19 350 28 57 33 42 0 210 77 101 100 100 38 71 150 69 28 4 357 359 359 1 4 4 3 358 357 355 354
107 107 95 87 83 86 89 87 93 89 102 39 24 131 98 199 312 331 4 3 12 9 290 151 124 130 50 70 89 58 360 344 341 346 1 2 5 3 2 355 355 354 358
98 96 98 94 101 112 104 90 81 98 103 82 24 35 69 136 61 334 347 352 348 355 336 278 161 187 63 64 48 194 331 319 310 331 340 349 352 355 354 355 354 354 358
101 101 103 101 96 98 98 106 92 78 81 100 98 70 45 55 59 122 306 331 334 325 300 260 230 119 67 27 356 248 302 321 305 286 295 319 329 337 342 349 352 356 2
104 106 100 97 102 102 97 103 92 80 72 68 69 56 95 120 341 42 21 322 293 309 344 26 14 47 52 348 281 306 313 305 286 253 270 278 297 314 324 337 346 356 2
110 110 100 103 104 107 110 100 85 75 70 75 70 51 44 74 99 105 94 312 309 304 340 334 27 27 354 324 308 303 333 337 315 296 321 285 280 295 303 313 333 347 352
113 103 104 100 102 107 91 85 83 87 88 79 67 44 58 54 55 85 143 105 333 325 324 318 325 2 336 329 339 358 348 326 341 352 353 271 287 300 292 290 300 307 286
115 111 106 109 108 97 97 94 94 94 93 80 71 62 60 30 30 9 33 81 136 328 292 332 341 342 342 343 18 4 354 4 8 352 297 325 328 318 296 279 283 276 280
119 114 117 114 98 93 98 101 102 105 99 95 85 66 49 36 36 21 13 23 41 60 329 306 329 336 338 8 11 3 10 360 353 350 353 347 340 341 335 320 311 307 281
120 121 123 103 100 103 120 127 137 119 105 98 76 66 51 41 35 24 11 19 27 18 345 312 320 331 348 19 3 359 2 354 343 360 2 341 346 352 353 343 325 338 65
126 123 113 109 115 114 122 124 99 109 109 94 88 70 53 46 31 20 25 16 17 353 20 325 314 340 1 13 355 6 350 347 340 347 351 3 356 345 360 23 58 61 40
116 113 113 115 89 68 80 90 93 92 80 80 71 67 56 45 32 13 10 8 352 341 329 337 308 328 348 8 344 342 347 334 343 351 1 351 347 348 21 44 46 37 17
108 92 87 85 78 67 55 66 80 83 87 81 75 71 64 56 37 9 4 353 339 332 324 337 333 344 335 325 317 327 343 343 338 351 340 328 334 348 4 359 356 9 350
94 92 89 80 71 59 42 57 81 83 81 88 84 79 57 45 34 19 5 336 337 337 346 359 340 328 320 336 333 315 314 314 309 309 333 319 334 329 343 346 350 2 343
91 87 81 79 74 66 31 64 84 85 80 86 108 95 56 31 16 11 6 10 18 32 8 358 319 326 305 314 295 314 317 337 336 295 338 329 321 335 335 342 349 6 348
95 88 84 85 73 58 50 67 84 84 90 78 68 57 47 29 15 6 358 11 7 2 8 341 316 319 299 316 330 307 330 325 308 321 341 310 332 325 329 336 355 359 354
101 97 87 78 77 52 56 77 94 95 83 77 73 77 73 23 14 16 3 1 354 342 336 332 304 298 306 309 348 310 321 318 308 330 7 323 323 331 329 324 4 352 345
102 96 91 79 72 45 47 81 95 99 89 85 77 77 69 39 5 19 17 359 344 347 342 343 341 0 34 43 31 17 0 353 346 336 30 335 337 330 326 329 350 339 0
103 96 86 78 73 63 53 61 63 102 99 96 76 56 73 48 352 355 38 360 356 329 336 340 351 359 355 36 46 45 9 358 346 330 11 341 341 347 325 336 328 349 348